DELTA 1 DEB, 10719

Orbit data source: Space-Track

DELTA 1 DEB, 10719 is space debris in SSO originally from a launch on Thu, 29 Jul 1976 UTC launched from the Air Force Western Test Range (AFWTR). Debris objects in space refer to the collection of defunct objects orbiting the Earth. Examples of debris include non-operational satellites, rocket bodies, and fragments generated from explosions, collisions, or faulty payload assembly.

Loading next visibility...
Identifier
10719, 1976-077AQ
Orbit
SSO
Country
Flag of USUS
Related business
Manufacturer
Unknown
Mission
Spacecraft
Bus & Motor
Unknown
Mass
Unknown
Launch date (UTC)
1976-07-29 (50 years ago)
Launch vehicle
Unknown
Launch site
Air Force Western Test Range (AFWTR)
Object type
Payload
Rocket body
Debris
Shape & HBR
Unknown shape, 0.1 m
Radar Cross Section
Small (<0.1 m²)

Expand to show TLE details & history
Last TLE update: 10 hours ago

TLE from 10 hours ago
0 DELTA 1 DEB
1 10719U 76077AQ  26033.99113243  .00000292  00000-0  37448-2 0  9992
2 10719 101.8861  55.2842 0230617 322.3729  64.2640 12.01346502165231
Epoch: 2026-02-02T23:47Z
TLE epoch observation values (Epoch: 2026-02-02T23:47:13.841Z)
Latitude
28.40913°
Longitude
-81.2074°
Altitude
1,600.87 km
Speed
7.105 km/s
True Right ascension
03h 15m 06s
True Declination
28° 16' 50"
Sunlit
Object was in daylight at epoch
Visualization orbit readout
Latitude
Unknown
Longitude
Unknown
Altitude
Unknown
Speed
Unknown
Apparent Right ascension
Unknown
Apparent Declination
Unknown
Sunlit
N/A
Visualization observer readout
Local Sidereal Time
11:46:40
Azimuth
Unknown
Elevation
Unknown
Doppler factor
Unknown
Orbital elements
Apogee altitude
1,858.115 km
Perigee altitude
1,486.794 km
Semi-major axis
8,050.591 km
Eccentricity
0.02306
Inclination
101.8861°
RAAN
55.2842°
Arg. of periapsis
322.3729°
True anomaly
66.67398°
Mean anomaly
64.264°
Eccentric anomaly
65.46604°
Mean motion
3.0047 °/min
Orbital period
119.81 mins
BSTAR
0.0037448
Loading maneuver chart data...
Computing Atmospheric mass density...
Loading historical data...
Loading historical data...
Loading historical data...
Loading historical data...
Loading historical data...
Loading historical data...
Loading historical data...

Documentation

Showing up to 5 results
|